Location: Newark
(49.3667°N, 21.6167°E)
Time: 11:20:27
(UTC+00:00)

Envisat - Pass Details

Date: 14 December 2019
Orbit: 764 x 766 km, 98.1° (Epoch: 18 January)

Event Time Altitude Azimuth Distance (km) Brightness Sun altitude
Rises 16:47:50 0° 179° (S) 3,221 6.4 -20.5°
Reaches altitude 10° 16:50:11 10° 184° (S) 2,299 5.7 -20.9°
Maximum altitude 16:55:07 51° 261° (W) 961 3.8 -21.7°
Drops below altitude 10° 17:00:06 10° 337° (NNW) 2,316 5.6 -22.5°
Sets 17:02:29 0° 343° (NNW) 3,246 6.3 -22.9°
